OBJECT G, 44885

Orbit data source: Space-Track

You're viewing an Uncataloged Satellite

Recently launched and/or uncataloged satellites may have evolving metadata. Metadata may include but not limited to: Owner, Maufacturer, Bus, Motor, and Mission.

OBJECT G, 44885 is a satellite in SSO that was launched on Fri, 20 Dec 2019 UTC via a CHANG ZHENG 4B launch vehicle from the Taiyaun Space Center, China (TSC). Unknown objects in Earth's orbit typically refer to objects detected orbiting the Earth but have not yet been identified or cataloged. These objects could be anything from previously untracked satellites, spent rocket stages, debris from satellite collisions, or even natural meteoroids temporarily captured by Earth's gravity.

Loading next visibility...
Identifier
44885, 2019-093G
Orbit
SSO
Country
Flag of TBDTBD
Related business
Flag of BRFederal University of Santa Catarina (BR)
Manufacturer
UFSC
Mission
Operational Amateur Technology
Bus & Motor
CUBESAT 1U, Unknown motor
Mass
1 kg wet, 1 kg dry
Launch date (UTC)
2019-12-20 (6 years ago)
Launch vehicle
CHANG ZHENG 4B
Launch site
Taiyaun Space Center, China (TSC)
Object type
Unknown
Shape & HBR
Box, Unknown HBR
Radar Cross Section
0.015 m², Medium (>0.1 m² and < 1m²)

Expand to show TLE details & history
Last TLE update: 5 days ago

TLE from 5 days ago
0 OBJECT G
1 44885U 19093G   26155.11722031  .00006850  00000-0  50270-3 0  9993
2 44885  97.7929 249.2544 0013601 111.1458 249.1222 15.03737551350687
Epoch: 2026-06-04T02:48Z
TLE epoch observation values (Epoch: 2026-06-04T02:48:47.834Z)
Latitude
-0.00006°
Longitude
-45.51099°
Altitude
561.813 km
Speed
7.579 km/s
True Right ascension
16h 37m 01s
True Declination
0° 00' 00"
Sunlit
Object was in full shadow at epoch
Visualization orbit readout
Latitude
Unknown
Longitude
Unknown
Altitude
Unknown
Speed
Unknown
Apparent Right ascension
Unknown
Apparent Declination
Unknown
Sunlit
N/A
Visualization observer readout
Local Sidereal Time
23:05:59
Azimuth
Unknown
Elevation
Unknown
Doppler factor
Unknown
Orbital elements
Apogee altitude
561.814 km
Perigee altitude
542.962 km
Semi-major axis
6,930.525 km
Eccentricity
0.00136
Inclination
97.7929°
RAAN
249.2544°
Arg. of periapsis
111.1458°
True anomaly
248.97667°
Mean anomaly
249.1222°
Eccentric anomaly
249.04942°
Mean motion
3.76178 °/min
Orbital period
95.7 mins
BSTAR
0.0005027
Loading maneuver chart data...
Computing Atmospheric mass density...
Loading historical data...
Loading historical data...
Loading historical data...
Loading historical data...
Loading historical data...
Loading historical data...
Loading historical data...

Documentation

Showing up to 5 results
|